National Weather Service United States Department of Commerce

Observations from across/near northern Michigan

Marine Observations

Michigan Hourly Observations

 

Yesterday's high, low and precipitation reports from across northern Michigan

Northern Michigan Temperatures and Precipitation

 

Observation Text Products


659
SXUS83 KAPX 190426
OMRAPX

Marine Observations
National Weather Service Gaylord MI
1126 PM EST Sat Nov 18 2017

WIND DATA (KTS) WAVES
SITE DATE/TIME DIR SPEED GUST (FT) SITE NAME
--------------------------------------------------

Lake Superior/St Marys River

GRMM4 190344Z 330 24 25 Grand Marais
WFPM4 190340Z 350 15 24 Whitefish Point
CYAM 190400Z 340 11 17 SOO (Canada)
KANJ 190355Z 350 8 Sault Ste Marie

Lake Huron

KDRM 190414Z 330 7 Drummond Island
KMCD 190414Z 330 9 17 Mackinac Island
KSLH 190414Z 310 13 20 Cheboygan Airport
CYGM4 190355Z 310 12 23 Cheboygan Marina
SRLM4 190400Z 340 23 Spectacle Reef Light
KPZQ 190415Z 340 15 23 Rogers City
PRIM4 190355Z 350 22 32 Presque Isle Light
KAPN 190354Z 330 11 Alpena Guard Base
APNM4 190410Z 340 9 12 Alpena Harbor Light
TBIM4 190350Z 360 16 25 Thunder Bay Island
SPTM4 190355Z 360 16 26 Sturgeon Point Light
KOSC 190414Z 330 12 19 Oscoda
TAWM4 190340Z 340 10 17 Tawas Point
GSLM4 190340Z 310 21 27 Gravelly Shoals
45003 190350Z 360 23 31 4.3 Northern Lake Huron Buoy
45008 190350Z 350 25 29 8.5 Central Lake Huron Buoy
KP58 190351Z 350 12 19 Port Hope

Lake Michigan

45002 190350Z 330 21 27 5.6 Northern Lake Michigan Buoy
KISQ 190415Z 320 13 21 Manistique
NABM4 190340Z 340 10 15 Naubinway
KSJX 190417Z 320 15 31 St James
KPLN 190354Z 320 20 26 Pellston
KMGN 190415Z 320 10 15 Harbor Springs
KCVX 190415Z 320 17 26 Charlevoix
GTLM4 190418Z 350 26 Grand Traverse Light
KTVC 190400Z 330 13 21 Traverse City
KFKS 190416Z 330 9 21 Frankfort
MEEM4 190340Z 340 29 33 Manistee Harbor
BSBM4 190402Z 330 29 Big Sable Point
KLDM 190415Z 340 13 18 Ludington Airport



000
ASUS43 KDTX 190410
RWRMI
MICHIGAN HOURLY REGIONAL WEATHER ROUNDUP
NATIONAL WEATHER SERVICE DETROIT/PONTIAC MI
1100 PM EST SAT NOV 18 2017

NOTE: "FAIR" INDICATES FEW OR NO CLOUDS BELOW 12,000 FEET WITH NO
SIGNIFICANT WEATHER AND/OR OBSTRUCTION TO VISIBILITY.

MIZ047>049-052>055-059>063-066>070-074>076-081>083-190500-
SOUTHEAST LOWER MICHIGAN

CITY SKY/WX TMP DP RH WIND PRES REMARKS
ADRIAN CLOUDY 38 33 82 N15G26 29.53R WCI 29
ALMA CLOUDY 38 32 79 NW13G21 29.56R WCI 30
ANN ARBOR CLOUDY 38 34 85 NW18G28 29.49R WCI 28
BAD AXE CLOUDY 37 35 90 N20G25 29.43R WCI 27
CARO CLOUDY 37 34 90 NW15G23 29.47R WCI 28
DETROIT CITY CLOUDY 45 34 65 NW15G21 29.43R
DETROIT CLOUDY 38 34 85 NW16G25 29.47R WCI 29
FLINT CLOUDY 37 32 82 NW20G29 29.50R WCI 27
GROSSE ILE CLOUDY 37 34 88 NW17G23 29.45R WCI 28
HILLSDALE CLOUDY 36 32 87 NW18G28 29.55R WCI 25
HOWELL CLOUDY 37 35 92 NW14G25 29.51R WCI 28

CITY SKY/WX TMP DP RH WIND PRES REMARKS
JACKSON CLOUDY 39 33 79 NW12G23 29.55R WCI 32
LAMBERTVILLE CLOUDY 39 35 86 NW9G22 29.50R WCI 33
LANSING CLOUDY 38 34 85 NW15 29.57R WCI 29
LAPEER RAIN 37 35 93 NW15G23 29.45R WCI 27
MASON CLOUDY 39 34 82 NW15G23 29.54R WCI 31
MONROE CLOUDY 39 35 83 NW16G24 29.48R WCI 30
MT. CLEMENS LGT RAIN 37 37 100 NW15G22 29.40R WCI 28
PONTIAC LGT RAIN 36 34 92 NW18G28 29.44R WCI 26
PORT HOPE N/A 40 33 76 N14G22 29.41R WCI 32
PORT HURON LGT RAIN 36 34 93 NW12G20 29.39R WCI 27
TRI CITIES CLOUDY 38 34 85 NW16 29.52R WCI 29
MIDLAND DRIZZLE 38 33 81 NW12G18 29.53R WCI 31
TROY CLOUDY 38 35 88 NW13G24 29.46R WCI 30
SAGINAW HB CLOUDY 36 32 87 NW13G25 29.50R WCI 27
$$
MIZ043>046-050>051-056>058-064>065-071>073-077>080-190500-
SOUTHWEST LOWER MICHIGAN

CITY SKY/WX TMP DP RH WIND PRES REMARKS
BATTLE CREEK CLOUDY 39 35 86 NW18G26 29.61R WCI 30
BENTON HARBOR CLOUDY 42 30 62 NW18G29 29.70R
BIG RAPIDS LGT SNOW 35 31 88 N12G22 29.60R WCI 26
COLDWATER CLOUDY 39 36 89 NW14 29.59R WCI 31
FREMONT CLOUDY 36 34 92 NW17G29 29.65R WCI 26
HOLLAND LGT RAIN 39 32 76 N16G31 29.67R WCI 30
GRAND RAPIDS CLOUDY 39 34 82 NW12 29.62R WCI 32
IONIA CLOUDY 38 34 87 NW17 29.59R WCI 28
KALAMAZOO CLOUDY 39 32 76 NW21G30 29.63R WCI 29
LUDINGTON LGT SNOW 34 32 93 N16G28 29.68R WCI 23
MARSHALL LGT RAIN 37 35 90 NW7G17 29.58R WCI 32
MOUNT PLEASANT CLOUDY 38 32 77 NW7G18 29.56R WCI 33
MUSKEGON CLOUDY 39 31 72 NW16G26 29.67R WCI 30
SOUTH HAVEN LGT RAIN 40 35 82 N21G30 29.68R WCI 30
$$
MIZ016>042-190500-
NORTHERN LOWER MICHIGAN

CITY SKY/WX TMP DP RH WIND PRES REMARKS
ALPENA CLOUDY 36 33 89 NW13 29.50R WCI 27
BEAVER ISLAND CLOUDY 35 31 85 NW17G24 29.64R WCI 24
BELLAIRE CLOUDY 36 31 82 N8 29.62R WCI 30
CADILLAC CLOUDY 33 31 94 NW15G23 29.58R WCI 23
CHARLEVOIX CLOUDY 36 31 83 NW16G28 29.65R WCI 26
FRANKFORT LGT SNOW 34 33 96 N16G22 29.68R WCI 24
GAYLORD CLOUDY 33 27 78 VRB6 29.55R WCI 28
GRAYLING CLOUDY 34 29 83 NW13 29.56R WCI 25
HARBOR SPRINGS CLOUDY 35 28 75 NW9 29.60R WCI 28
MANISTEE CLOUDY 36 30 80 N12G18 29.69R WCI 27
OSCODA CLOUDY 36 33 90 NW15G24 29.47R WCI 26
PELLSTON CLOUDY 35 27 72 NW23G30 29.60R WCI 23
ROGERS CITY CLOUDY 37 31 78 N17G25 29.53R WCI 27
TRAVERSE CITY FLURRIES 35 33 92 NW15G24 29.64R WCI 25
$$
MIZ007>008-015-190500-
EASTERN UPPER MICHIGAN

CITY SKY/WX TMP DP RH WIND PRES REMARKS
KINROSS CLOUDY 34 28 79 N12G25 29.57R WCI 25
MACKINAC ISLAN CLOUDY 36 31 83 NW10G21 29.58R WCI 28
NEWBERRY LGT SNOW 31 30 97 NW12G20 29.61R WCI 21
S. S. MARIE CLOUDY 35 26 69 N9 29.56S WCI 28
MUNISING N/A 33 31 92 N23G32 29.70R WCI 21
$$
MIZ004>006-011>014-085-190500-
CENTRAL UPPER MICHIGAN

CITY SKY/WX TMP DP RH WIND PRES REMARKS
MANISTIQUE CLOUDY 30 25 82 NW16G24 29.66R WCI 19
ESCANABA CLOUDY 32 25 75 NW18G25 29.72R WCI 20
MENOMINEE CLOUDY 33 26 75 NW14G21 29.75R WCI 23
SAWYER-GWINN CLOUDY 27 22 81 NW20G26 29.72R WCI 14
$$
MIZ001>003-009>011-084-190500-
WESTERN UPPER MICHIGAN

CITY SKY/WX TMP DP RH WIND PRES REMARKS
IRON MOUNTAIN CLOUDY 28 22 78 NW17G25 29.73R WCI 16
HOUGHTON FLURRIES 25 17 72 NW20 29.76R WCI 11
COPPER HARBOR N/A 30 23 75 N24G31 29.76R WCI 16
IRONWOOD FLURRIES N/A N/A N/A W14 29.84S
$$

ABBREVIATIONS USED IN REMARKS
TC - TEMPERATURE IN CELSIUS
WCI - WIND CHILL INDEX
HX - HEAT INDEX
VSB - VISIBILITY




000
ASUS63 KAPX 190054
RTPAPX


Eastern Upper/Northern Lower Michigan Temperature and Precip Summary
National Weather Service Gaylord MI
754 PM EST Sat Nov 18 2017

18 hour High/Low Temperature ending 7 pm EST
24 hour Precipitation/Snowfall ending 7 pm EST
Snow Depth Observed at 7 pm EST

.BR APX 1118 ES DH19/TAIRZS/TAIRZI/PPDRZZ/SFDRZZ/SDIRZZ
:..................................................................
: MAX MIN 24 HR SNOW SNOW
:ID LOCATION TEMP TEMP PRECIP FALL DEPTH
:..................................................................
ANJ : Sault Ste Marie : 39 / 33 / 0.61 / 1.1 / 1
APN : Alpena : 39 / 34 / 0.91 / M / 0
HTL : Houghton Lake : 38 / 34 / 0.93 / T / T
PLN : Pellston : 40 / 33 / 0.37 / /
TVC : Traverse City : 42 / 38 / 0.47 / /
GLR : Gaylord : 35 / 33 / 0.31 / /
.END

Cooperative Observations
Temperature/Precipitation/Snowfall values are for 24 hour period
ending 7 pm EST. Snow Depth is observed at 7 pm EST.
...................................................................
OBS MAX MIN SNOW SNOW
ID LOCATION TIME TEMP TEMP PCPN FALL DEPTH
...................................................................
ONAM4: Onaway 4N :DH1800/ 37 / 33 / 0.55 / 0.0 / 0.0

These data are preliminary and have not undergone final quality
control by the National Climatic Data Center. Therefore...these
data are subject to revision. Final and certified climate data
can be accessed at www.ncdc.noaa.gov.

&&

The following are supplemental temperature and precipitation data.
This includes data which are received from non-National Weather
Service maintained observing systems...as well as reports from
public weather spotters. Data is only partially quality controlled
and is not suitable for official climatological records.

.BR APX 1118 ES DH19/TAIRZS/TAIRZI
:
:Automated Temperature Data--18 hr High/Low ending 7 pm EST
:..................................................................
: MAX MIN
:ID LOCATION TEMP TEMP
:..................................................................
:
ERY : Newberry : 36 / 32
CIU : Kinross : 38 / 32
MCD : Mackinac Island : 39 / 35
DRM : Drummond Island : 39 / 34
SJX : Beaver Island : 40 / 37
SLH : Cheboygan : 38 / 33
PZQ : Rogers City : 39 / 33
CVX : Charlevoix : 41 / 36
MGN : Harbor Springs : 39 / 33
ACB : Bellaire : 39 / 36
FKS : Frankfort : 42 / 40
GOV : Grayling AAF : 37 / 35
MBL : Manistee : 41 / 38
CAD : Cadillac : 38 / 35
Y31 : West Branch : 38 / 33
OSC : Oscoda : 39 / 33
LDM : Ludington : 44 / 39
RQB : Big Rapids : 41 / 35
MOP : Mount Pleasant : 43 / 34
IKW : Midland : 44 / 33
.END

U.S. Forest Service Remote Automated Weather Stations (RAWS)
Data is only partially quality controlled
18 hour High/Low Temperature ending 7 pm EST
Minimum Relative Humidity over past 18 hours
12/24 hour Precipitation ending 7 pm EST
...................................................................
MAX MIN MIN 12 HR 24 HR
ID LOCATION TEMP TEMP RH PRECIP PRECIP
...................................................................
AGRM4: Alger RAWS : 39 / 32 / 94 / 0.00 / 0.00
ATAM4: Atlanta RAWS : 37 / 33 / 91 / 0.00 / 0.00
BCYM4: Barton City RAWS : 38 / 34 / 100 / 0.00 / 0.00
GYGM4: Grayling RAWS : 37 / 33 / 92 / 0.00 / 0.00
INDM4: Indian River RAWS : 38 / 34 / 84 / 0.00 / 0.00
MMOM4: Mio RAWS : 37 / 33 / 90 / 0.28 / 1.06
MTNM4: Manton RAWS : M / M / M / M / M
NMIM4: N Manitou Island : 41 / 39 / 65 / 0.01 / 0.35
RACM4: Raco RAWS : 40 / 32 / 80 / 0.31 / 0.42
REXM4: Rexton RAWS : 39 / 33 / 82 / 0.00 / 0.00
RSCM4: Roscommon RAWS : 37 / 33 / M / 0.24 / 0.87
RYDM4: Rudyard RAWS : 40 / 32 / 83 / 0.00 / 0.00
SBDM4: The Bear RAWS : 40 / 38 / 75 / 0.04 / 0.56
SCKM4: Silver Creek RAWS : 39 / 34 / 100 / 0.24 / 0.91
WLLM4: Wellston RAWS : 40 / 38 / 93 / 0.11 / 0.56

The following are preicpitation reports received by the National
Weather Service in Gaylord...valid for the time period ending
around 7 pm EST. All reports have been recorded in inches.

Spotter reports from Eastern Upper and Northern Lower Michigan:

WATER TIME SNOW
LOCATION RAIN SNOW EQUIV PERIOD DEPTH

No reports

$$